UAE2P OMDB-LIPE

Flight info

Callsign UAE2P
Flight time N/A
Altitude 38000
Route ANVIX R401 GIDIS G783 RIGIL/N0487F400 M628 PEKEM DCT MEDPO DCT ITRUX Y511 PMA Z712 WEJ L677 CVO L617 TANSA UL613 XANIS DCT DIMIS DCT KOFER DCT ORAKA DCT XAMIT DCT ERITU DCT SORUG DCT ASDOR DCT LIKNO DCT PIDEP DCT BAGNO M726 PELEG
Aircraft A359/H-SDE2E3GHIJ3J4J5LM1ORWXY/LB1D1

Departure

Time 2026-05-05 20:04
Airport Dubai International Airport (OMDB)

Arrival

Time N/A
Airport Bologna Guglielmo Marconi Airport (LIPE)
Time Latitude Longitude Altitude Speed Heading
2026-05-05 19:38 25.24199 55.37250 27 ft 0 kts 31°
2026-05-05 19:54 25.24191 55.37244 27 ft 3 kts 31°
2026-05-05 19:54 25.24174 55.37233 26 ft 3 kts 31°
2026-05-05 19:54 25.24157 55.37221 25 ft 3 kts 30°
2026-05-05 19:54 25.24139 55.37210 24 ft 3 kts 33°
2026-05-05 19:55 25.24124 55.37197 26 ft 3 kts 57°
2026-05-05 19:55 25.24119 55.37185 25 ft 2 kts 117°
2026-05-05 19:55 25.24124 55.37174 23 ft 3 kts 122°
2026-05-05 19:55 25.24135 55.37155 25 ft 2 kts 122°
2026-05-05 19:56 25.24139 55.37148 25 ft 0 kts 122°
2026-05-05 19:58 25.24138 55.37149 25 ft 1 kts 122°
2026-05-05 19:58 25.24122 55.37178 23 ft 8 kts 121°
2026-05-05 19:59 25.24084 55.37247 27 ft 12 kts 122°
2026-05-05 19:59 25.24031 55.37341 27 ft 15 kts 122°
2026-05-05 19:59 25.23976 55.37442 27 ft 16 kts 111°
2026-05-05 19:59 25.23987 55.37567 27 ft 16 kts 64°
2026-05-05 20:00 25.24065 55.37637 26 ft 16 kts 32°
2026-05-05 20:00 25.24170 55.37706 28 ft 17 kts 32°
2026-05-05 20:00 25.24276 55.37778 28 ft 14 kts 32°
2026-05-05 20:00 25.24359 55.37838 30 ft 15 kts 34°
2026-05-05 20:01 25.24451 55.37906 36 ft 17 kts 34°
2026-05-05 20:01 25.24557 55.37987 33 ft 16 kts 34°
2026-05-05 20:01 25.24614 55.37988 31 ft 8 kts 327°
2026-05-05 20:01 25.24657 55.37927 31 ft 13 kts 299°
2026-05-05 20:02 25.24718 55.37877 31 ft 7 kts
2026-05-05 20:02 25.24772 55.37905 33 ft 10 kts 29°
2026-05-05 20:02 25.24832 55.37941 36 ft 7 kts 13°
2026-05-05 20:02 25.24864 55.37923 36 ft 6 kts 319°
2026-05-05 20:03 25.24870 55.37912 36 ft 0 kts 303°
2026-05-05 20:03 25.24947 55.37774 36 ft 55 kts 301°
2026-05-05 20:03 25.25265 55.37202 38 ft 118 kts 301°
2026-05-05 20:04 25.25789 55.36255 40 ft 170 kts 302°
2026-05-05 20:04 25.26402 55.35141 680 ft 165 kts 303°
2026-05-05 20:04 25.27021 55.34066 1253 ft 171 kts 303°
2026-05-05 20:04 25.27669 55.32909 1713 ft 184 kts 302°
2026-05-05 20:05 25.28357 55.31658 1898 ft 197 kts 302°
2026-05-05 20:05 25.29045 55.30288 2010 ft 212 kts 294°
2026-05-05 20:05 25.29184 55.28642 2089 ft 225 kts 255°
2026-05-05 20:05 25.28603 55.27017 2356 ft 230 kts 243°
2026-05-05 20:06 25.27893 55.25416 2641 ft 237 kts 243°
2026-05-05 20:06 25.27160 55.23755 2995 ft 243 kts 244°
2026-05-05 20:06 25.26429 55.22071 3458 ft 243 kts 244°
2026-05-05 20:06 25.25704 55.20380 3930 ft 244 kts 245°
2026-05-05 20:07 25.24955 55.18690 4374 ft 246 kts 241°
2026-05-05 20:07 25.23821 55.17283 4811 ft 249 kts 213°
2026-05-05 20:07 25.22172 55.16688 5101 ft 257 kts 182°
2026-05-05 20:07 25.20361 55.16792 5426 ft 264 kts 170°
2026-05-05 20:08 25.18665 55.17538 5848 ft 264 kts 142°
2026-05-05 20:08 25.17451 55.19078 6093 ft 273 kts 119°
2026-05-05 20:08 25.16540 55.20965 6336 ft 283 kts 115°
2026-05-05 20:08 25.15648 55.22911 6725 ft 286 kts 116°
2026-05-05 20:09 25.14734 55.24872 7169 ft 288 kts 116°
2026-05-05 20:09 25.13808 55.26833 7608 ft 289 kts 117°
2026-05-05 20:09 25.12874 55.28807 8036 ft 291 kts 117°
2026-05-05 20:09 25.11923 55.30791 8471 ft 293 kts 118°
2026-05-05 20:10 25.10965 55.32781 8879 ft 295 kts 118°
2026-05-05 20:10 25.10029 55.34806 9317 ft 296 kts 115°
2026-05-05 20:10 25.09186 55.36881 9755 ft 298 kts 114°
2026-05-05 20:10 25.08347 55.38976 10158 ft 299 kts 114°
2026-05-05 20:11 25.07496 55.41081 10533 ft 302 kts 114°
2026-05-05 20:11 25.06653 55.43183 10839 ft 307 kts 113°
2026-05-05 20:11 25.05801 55.45419 11008 ft 317 kts 112°
2026-05-05 20:11 25.04949 55.47664 11166 ft 327 kts 112°
2026-05-05 20:12 25.04041 55.50040 11308 ft 336 kts 113°
2026-05-05 20:12 25.03118 55.52447 11470 ft 346 kts 113°
2026-05-05 20:12 25.02149 55.54905 11606 ft 354 kts 116°
2026-05-05 20:12 25.00979 55.57283 11749 ft 361 kts 121°
2026-05-05 20:13 24.99683 55.59687 11891 ft 368 kts 121°
2026-05-05 20:13 24.98359 55.62124 12084 ft 373 kts 121°
2026-05-05 20:13 24.97025 55.64585 12344 ft 375 kts 121°
2026-05-05 20:13 24.95686 55.67057 12620 ft 377 kts 121°
2026-05-05 20:14 24.94322 55.69537 12888 ft 379 kts 123°
2026-05-05 20:14 24.92817 55.71925 13145 ft 381 kts 126°
2026-05-05 20:14 24.91252 55.74287 13398 ft 382 kts 127°
2026-05-05 20:14 24.90189 55.75885 13591 ft 383 kts 127°
2026-05-05 20:15 24.88611 55.78258 13812 ft 385 kts 126°
2026-05-05 20:15 24.87031 55.80636 14077 ft 385 kts 127°
2026-05-05 20:15 24.85446 55.83023 14288 ft 387 kts 126°
2026-05-05 20:15 24.83850 55.85429 14449 ft 391 kts 126°
2026-05-05 20:16 24.82232 55.87843 14712 ft 392 kts 127°
2026-05-05 20:16 24.80579 55.90229 14981 ft 392 kts 129°
2026-05-05 20:16 24.78582 55.92266 15164 ft 394 kts 147°
2026-05-05 20:16 24.76114 55.93449 15340 ft 395 kts 167°
2026-05-05 20:17 24.73392 55.93820 15583 ft 395 kts 178°
2026-05-05 20:17 24.70640 55.93867 15825 ft 396 kts 181°
2026-05-05 20:17 24.67882 55.93769 16074 ft 397 kts 183°
2026-05-05 20:17 24.65119 55.93623 16322 ft 399 kts 183°
2026-05-05 20:18 24.62363 55.93259 16529 ft 400 kts 193°
2026-05-05 20:18 24.59725 55.92312 16740 ft 401 kts 206°
2026-05-05 20:18 24.57342 55.90726 16979 ft 400 kts 217°
2026-05-05 20:18 24.55138 55.88853 17206 ft 401 kts 220°
2026-05-05 20:19 24.53018 55.86853 17441 ft 403 kts 223°
2026-05-05 20:19 24.50930 55.84792 17668 ft 404 kts 223°
2026-05-05 20:19 24.48844 55.82711 17902 ft 406 kts 223°
2026-05-05 20:19 24.46746 55.80632 18137 ft 407 kts 223°
2026-05-05 20:20 24.44628 55.78555 18340 ft 408 kts 223°
2026-05-05 20:20 24.42501 55.76491 18565 ft 409 kts 223°
2026-05-05 20:20 24.40361 55.74429 18779 ft 409 kts 222°
2026-05-05 20:20 24.38218 55.72371 18994 ft 411 kts 222°
2026-05-05 20:21 24.36062 55.70307 19208 ft 412 kts 222°
2026-05-05 20:21 24.33901 55.68241 19415 ft 413 kts 222°
2026-05-05 20:21 24.31739 55.66170 19616 ft 414 kts 222°
2026-05-05 20:21 24.29569 55.64089 19830 ft 415 kts 222°
2026-05-05 20:22 24.27330 55.62098 20014 ft 417 kts 216°
2026-05-05 20:22 24.24788 55.60545 20205 ft 420 kts 204°
2026-05-05 20:22 24.22055 55.59426 20399 ft 421 kts 200°
2026-05-05 20:22 24.19244 55.58479 20596 ft 423 kts 197°
2026-05-05 20:23 24.16404 55.57627 20789 ft 424 kts 196°
2026-05-05 20:23 24.13542 55.56810 20983 ft 425 kts 196°
2026-05-05 20:23 24.10675 55.55996 21167 ft 426 kts 196°
2026-05-05 20:23 24.07799 55.55171 21351 ft 427 kts 196°
2026-05-05 20:24 24.04926 55.54334 21540 ft 428 kts 196°
2026-05-05 20:24 24.02046 55.53484 21725 ft 429 kts 197°
2026-05-05 20:24 23.99158 55.52628 21913 ft 430 kts 197°
2026-05-05 20:24 23.96266 55.51770 22085 ft 431 kts 197°
2026-05-05 20:25 23.93368 55.50907 22270 ft 432 kts 197°
2026-05-05 20:25 23.90463 55.50042 22435 ft 433 kts 197°
2026-05-05 20:25 23.87555 55.49177 22614 ft 434 kts 197°
2026-05-05 20:25 23.84635 55.48309 22770 ft 435 kts 197°
2026-05-05 20:26 23.81710 55.47441 22938 ft 436 kts 197°
2026-05-05 20:26 23.78772 55.46568 23098 ft 437 kts 197°
2026-05-05 20:26 23.75836 55.45696 23262 ft 439 kts 197°
2026-05-05 20:26 23.72888 55.44820 23418 ft 440 kts 197°
2026-05-05 20:27 23.69934 55.43944 23517 ft 441 kts 197°
2026-05-05 20:27 23.66967 55.43064 23638 ft 443 kts 197°
2026-05-05 20:27 23.63989 55.42182 23769 ft 443 kts 197°
2026-05-05 20:27 23.61052 55.41312 23911 ft 444 kts 197°
2026-05-05 20:28 23.58068 55.40429 24048 ft 444 kts 197°
2026-05-05 20:28 23.55085 55.39546 24194 ft 445 kts 197°
2026-05-05 20:28 23.52093 55.38661 24331 ft 446 kts 197°
2026-05-05 20:28 23.49098 55.37779 24468 ft 446 kts 197°
2026-05-05 20:29 23.46096 55.36893 24603 ft 447 kts 197°
2026-05-05 20:29 23.43087 55.36003 24733 ft 448 kts 197°
2026-05-05 20:29 23.40081 55.35112 24836 ft 449 kts 197°
2026-05-05 20:29 23.37056 55.34217 24954 ft 450 kts 197°
2026-05-05 20:30 23.34028 55.33322 25075 ft 451 kts 197°
2026-05-05 20:30 23.31003 55.32429 25221 ft 452 kts 197°
2026-05-05 20:30 23.27961 55.31532 25357 ft 453 kts 197°
2026-05-05 20:30 23.24919 55.30635 25503 ft 453 kts 197°
2026-05-05 20:31 23.21876 55.29739 25620 ft 454 kts 197°
2026-05-05 20:31 23.18823 55.28839 25764 ft 455 kts 197°
2026-05-05 20:31 23.15766 55.27939 25899 ft 455 kts 197°
2026-05-05 20:31 23.12741 55.26925 26018 ft 455 kts 202°
2026-05-05 20:32 23.09864 55.25504 26155 ft 454 kts 211°
2026-05-05 20:32 23.07233 55.23631 26292 ft 452 kts 220°
2026-05-05 20:32 23.04929 55.21323 26429 ft 451 kts 229°
2026-05-05 20:32 23.03028 55.18635 26548 ft 450 kts 239°
2026-05-05 20:33 23.01575 55.15635 26680 ft 449 kts 248°
2026-05-05 20:33 23.00599 55.12422 26826 ft 449 kts 256°
2026-05-05 20:33 22.99866 55.09124 26949 ft 449 kts 258°
2026-05-05 20:33 22.99215 55.05808 27090 ft 450 kts 259°
2026-05-05 20:34 22.98592 55.02474 27240 ft 451 kts 259°
2026-05-05 20:34 22.97971 54.99142 27366 ft 452 kts 259°
2026-05-05 20:34 22.97340 54.95801 27523 ft 452 kts 259°
2026-05-05 20:34 22.96695 54.92458 27659 ft 453 kts 258°
2026-05-05 20:35 22.96040 54.89109 27802 ft 454 kts 258°
2026-05-05 20:35 22.95377 54.85756 27950 ft 454 kts 258°
2026-05-05 20:35 22.94711 54.82403 28083 ft 455 kts 258°
2026-05-05 20:35 22.94042 54.79046 28237 ft 456 kts 258°
2026-05-05 20:36 22.93380 54.75727 28374 ft 457 kts 258°
2026-05-05 20:36 22.92706 54.72351 28485 ft 458 kts 258°
2026-05-05 20:36 22.92031 54.68966 28606 ft 459 kts 258°
2026-05-05 20:36 22.91354 54.65581 28755 ft 460 kts 258°
2026-05-05 20:37 22.90675 54.62185 28898 ft 461 kts 258°
2026-05-05 20:37 22.89995 54.58787 29045 ft 461 kts 258°
2026-05-05 20:37 22.89313 54.55385 29172 ft 462 kts 258°
2026-05-05 20:37 22.88629 54.51977 29323 ft 463 kts 258°
2026-05-05 20:38 22.87944 54.48563 29441 ft 464 kts 258°
2026-05-05 20:38 22.87254 54.45133 29553 ft 466 kts 258°
2026-05-05 20:38 22.86563 54.41704 29694 ft 466 kts 258°
2026-05-05 20:38 22.85870 54.38264 29828 ft 467 kts 258°
2026-05-05 20:39 22.85175 54.34820 29953 ft 468 kts 258°
2026-05-05 20:39 22.84479 54.31377 30079 ft 468 kts 258°
2026-05-05 20:39 22.83781 54.27928 30201 ft 469 kts 258°
2026-05-05 20:39 22.83081 54.24472 30333 ft 469 kts 258°
2026-05-05 20:40 22.82380 54.21015 30447 ft 470 kts 258°
2026-05-05 20:40 22.81679 54.17559 30572 ft 470 kts 258°
2026-05-05 20:40 22.80973 54.14089 30691 ft 471 kts 258°
2026-05-05 20:40 22.80269 54.10628 30816 ft 471 kts 258°
2026-05-05 20:41 22.79561 54.07153 30935 ft 472 kts 257°
2026-05-05 20:41 22.78853 54.03682 31061 ft 472 kts 257°
2026-05-05 20:41 22.78144 54.00206 31170 ft 473 kts 257°
2026-05-05 20:41 22.77437 53.96720 31279 ft 474 kts 258°
2026-05-05 20:42 22.76751 53.93229 31392 ft 474 kts 258°
2026-05-05 20:42 22.76073 53.89727 31494 ft 475 kts 258°
2026-05-05 20:42 22.75398 53.86224 31606 ft 475 kts 258°
2026-05-05 20:43 22.74038 53.79210 31805 ft 476 kts 258°
2026-05-05 20:43 22.73362 53.75745 31907 ft 476 kts 258°
2026-05-05 20:43 22.72665 53.72186 31996 ft 477 kts 258°
2026-05-05 20:44 22.71292 53.65200 32179 ft 478 kts 257°
2026-05-05 20:44 22.69905 53.58160 32362 ft 479 kts 257°
2026-05-05 20:45 22.67811 53.47565 32618 ft 480 kts 257°
2026-05-05 20:45 22.67113 53.44036 32730 ft 479 kts 257°
2026-05-05 20:45 22.66413 53.40506 32850 ft 479 kts 257°
2026-05-05 20:46 22.65011 53.33449 32983 ft 480 kts 257°
2026-05-05 20:46 22.63604 53.26383 33197 ft 480 kts 257°
2026-05-05 20:47 22.62900 53.22855 33306 ft 479 kts 257°
2026-05-05 20:47 22.62196 53.19329 33410 ft 479 kts 257°
2026-05-05 20:47 22.61493 53.15812 33517 ft 479 kts 257°
2026-05-05 20:47 22.60789 53.12294 33649 ft 478 kts 257°
2026-05-05 20:48 22.60084 53.08779 33786 ft 477 kts 257°
2026-05-05 20:48 22.59380 53.05271 33909 ft 477 kts 257°
2026-05-05 20:48 22.58677 53.01771 34017 ft 476 kts 257°
2026-05-05 20:48 22.57973 52.98270 34126 ft 476 kts 257°
2026-05-05 20:49 22.57269 52.94774 34237 ft 476 kts 257°
2026-05-05 20:49 22.56564 52.91276 34358 ft 475 kts 257°
2026-05-05 20:49 22.55859 52.87781 34478 ft 475 kts 257°
2026-05-05 20:49 22.55154 52.84294 34605 ft 475 kts 257°
2026-05-05 20:50 22.54448 52.80806 34731 ft 474 kts 257°
2026-05-05 20:50 22.53742 52.77322 34860 ft 474 kts 257°
2026-05-05 20:50 22.53046 52.73889 34988 ft 474 kts 257°
2026-05-05 20:50 22.52340 52.70412 35122 ft 473 kts 257°
2026-05-05 20:51 22.51634 52.66938 35267 ft 473 kts 257°
2026-05-05 20:51 22.50928 52.63468 35429 ft 472 kts 257°
2026-05-05 20:51 22.50222 52.60002 35569 ft 472 kts 257°
2026-05-05 20:51 22.49515 52.56536 35722 ft 472 kts 256°
2026-05-05 20:52 22.48810 52.53082 35873 ft 471 kts 256°
2026-05-05 20:52 22.48102 52.49622 36033 ft 471 kts 256°
2026-05-05 20:52 22.47394 52.46163 36183 ft 471 kts 256°
2026-05-05 20:52 22.46686 52.42707 36348 ft 470 kts 256°
2026-05-05 20:53 22.45978 52.39259 36527 ft 470 kts 256°
2026-05-05 20:53 22.45271 52.35816 36713 ft 469 kts 256°
2026-05-05 20:53 22.44564 52.32373 36888 ft 469 kts 256°
2026-05-05 20:53 22.43856 52.28934 37066 ft 468 kts 256°
2026-05-05 20:54 22.43149 52.25504 37237 ft 468 kts 256°
2026-05-05 20:54 22.42441 52.22074 37395 ft 467 kts 256°
2026-05-05 20:54 22.41734 52.18648 37558 ft 467 kts 256°
2026-05-05 20:54 22.41112 52.15200 37715 ft 467 kts 261°
2026-05-05 20:55 22.41006 52.08177 37777 ft 469 kts 272°
2026-05-05 20:55 22.41556 52.01135 37772 ft 471 kts 274°
2026-05-05 20:56 22.42204 51.94093 37782 ft 471 kts 274°
2026-05-05 20:56 22.42838 51.87053 37771 ft 471 kts 273°
2026-05-05 20:57 22.43448 51.80004 37786 ft 471 kts 273°
2026-05-05 20:57 22.44048 51.72954 37770 ft 471 kts 273°
2026-05-05 20:58 22.44644 51.65903 37778 ft 471 kts 273°
2026-05-05 20:58 22.45238 51.58854 37786 ft 470 kts 273°
2026-05-05 20:59 22.45824 51.51863 37782 ft 470 kts 273°
2026-05-05 20:59 22.46411 51.44817 37782 ft 471 kts 273°
2026-05-05 21:00 22.46995 51.37777 37790 ft 470 kts 273°
2026-05-05 21:00 22.47577 51.30730 37783 ft 470 kts 273°
2026-05-05 21:01 22.48154 51.23696 37778 ft 470 kts 273°
2026-05-05 21:01 22.48729 51.16652 37785 ft 470 kts 273°
2026-05-05 21:02 22.49302 51.09603 37783 ft 470 kts 273°
2026-05-05 21:02 22.49778 51.03705 37776 ft 470 kts 273°
2026-05-05 21:03 22.50345 50.96660 37794 ft 470 kts 273°
2026-05-05 21:03 22.50904 50.89669 37779 ft 469 kts 273°
2026-05-05 21:04 22.51463 50.82640 37785 ft 469 kts 273°
2026-05-05 21:04 22.52018 50.75614 37785 ft 469 kts 273°
2026-05-05 21:05 22.52570 50.68589 37784 ft 469 kts 273°
2026-05-05 21:05 22.53119 50.61567 37786 ft 469 kts 273°
2026-05-05 21:06 22.53665 50.54543 37781 ft 469 kts 273°
2026-05-05 21:06 22.54209 50.47514 37778 ft 469 kts 272°
2026-05-05 21:07 22.54749 50.40490 37782 ft 469 kts 272°
2026-05-05 21:07 22.55286 50.33465 37783 ft 468 kts 272°
2026-05-05 21:08 22.55819 50.26440 37781 ft 468 kts 272°
2026-05-05 21:08 22.56350 50.19420 37775 ft 468 kts 272°
2026-05-05 21:09 22.56878 50.12386 37772 ft 469 kts 272°
2026-05-05 21:09 22.57403 50.05359 37775 ft 469 kts 272°
2026-05-05 21:10 22.57925 49.98322 37774 ft 469 kts 272°
2026-05-05 21:10 22.58440 49.91339 37772 ft 469 kts 272°
2026-05-05 21:11 22.58957 49.84296 37771 ft 470 kts 272°
2026-05-05 21:11 22.59470 49.77250 37772 ft 470 kts 272°
2026-05-05 21:12 22.59981 49.70204 37773 ft 469 kts 272°
2026-05-05 21:12 22.60488 49.63171 37770 ft 469 kts 272°
2026-05-05 21:13 22.60991 49.56138 37775 ft 468 kts 272°
2026-05-05 21:13 22.61491 49.49119 37774 ft 467 kts 272°
2026-05-05 21:14 22.61986 49.42121 37774 ft 466 kts 272°
2026-05-05 21:14 22.62476 49.35130 37774 ft 466 kts 272°
2026-05-05 21:15 22.62964 49.28137 37776 ft 466 kts 272°
2026-05-05 21:15 22.63449 49.21154 37777 ft 465 kts 272°
2026-05-05 21:16 22.63930 49.14174 37779 ft 465 kts 272°
2026-05-05 21:16 22.64408 49.07193 37772 ft 465 kts 272°
2026-05-05 21:17 22.64884 49.00205 37779 ft 466 kts 272°
2026-05-05 21:17 22.65358 48.93197 37782 ft 466 kts 272°
2026-05-05 21:18 22.65828 48.86213 37780 ft 464 kts 272°
2026-05-05 21:18 22.66293 48.79241 37782 ft 464 kts 272°
2026-05-05 21:19 22.66755 48.72273 37779 ft 464 kts 272°
2026-05-05 21:19 22.67214 48.65301 37779 ft 464 kts 272°
2026-05-05 21:20 22.67670 48.58324 37782 ft 465 kts 272°
2026-05-05 21:20 22.68125 48.51330 37782 ft 466 kts 272°
2026-05-05 21:21 22.68574 48.44382 37779 ft 466 kts 272°
2026-05-05 21:21 22.69022 48.37389 37780 ft 466 kts 272°
2026-05-05 21:22 22.69469 48.30385 37797 ft 466 kts 271°
2026-05-05 21:22 22.69912 48.23397 37782 ft 465 kts 271°
2026-05-05 21:23 22.70350 48.16417 37783 ft 465 kts 271°
2026-05-05 21:23 22.70785 48.09425 37782 ft 465 kts 271°
2026-05-05 21:24 22.71218 48.02432 37782 ft 465 kts 271°
2026-05-05 21:24 22.71649 47.95432 37791 ft 466 kts 271°
2026-05-05 21:25 22.72077 47.88417 37790 ft 467 kts 271°
2026-05-05 21:25 22.72503 47.81401 37790 ft 467 kts 271°
2026-05-05 21:26 22.72925 47.74381 37793 ft 468 kts 271°
2026-05-05 21:26 22.73345 47.67350 37806 ft 468 kts 271°
2026-05-05 21:27 22.73762 47.60328 37799 ft 467 kts 271°
2026-05-05 21:27 22.74175 47.53321 37807 ft 465 kts 271°
2026-05-05 21:28 22.74583 47.46338 37807 ft 465 kts 271°
2026-05-05 21:28 22.74987 47.39350 37807 ft 465 kts 271°
2026-05-05 21:29 22.75389 47.32366 37810 ft 464 kts 271°
2026-05-05 21:29 22.75788 47.25388 37815 ft 464 kts 271°
2026-05-05 21:30 22.76184 47.18406 37821 ft 464 kts 271°
2026-05-05 21:30 22.76653 47.11434 37821 ft 464 kts 272°
2026-05-05 21:31 22.77238 47.04475 37836 ft 464 kts 272°
2026-05-05 21:31 22.77816 46.97532 37831 ft 463 kts 272°
2026-05-05 21:32 22.78370 46.90586 37834 ft 462 kts 271°
2026-05-05 21:32 22.78908 46.83684 37835 ft 462 kts 271°
2026-05-05 21:33 22.79445 46.76738 37846 ft 462 kts 271°
2026-05-05 21:33 22.79980 46.69790 38104 ft 463 kts 271°
2026-05-05 21:34 22.80246 46.66322 38323 ft 462 kts 271°
2026-05-05 21:34 22.80512 46.62854 38496 ft 462 kts 271°
2026-05-05 21:34 22.80778 46.59381 38642 ft 462 kts 271°
2026-05-05 21:34 22.81041 46.55917 38793 ft 461 kts 271°
2026-05-05 21:35 22.81304 46.52460 38939 ft 461 kts 271°
2026-05-05 21:35 22.81567 46.48995 39094 ft 460 kts 271°
2026-05-05 21:35 22.81827 46.45553 39346 ft 457 kts 271°
2026-05-05 21:35 22.82086 46.42127 39537 ft 455 kts 271°
2026-05-05 21:36 22.82343 46.38714 39651 ft 455 kts 271°
2026-05-05 21:36 22.82601 46.35292 39748 ft 456 kts 271°
2026-05-05 21:36 22.83106 46.28438 39871 ft 456 kts 271°
2026-05-05 21:37 22.83607 46.21590 39873 ft 456 kts 271°
2026-05-05 21:37 22.84107 46.14745 39871 ft 456 kts 271°
2026-05-05 21:38 22.84606 46.07895 39870 ft 456 kts 271°
2026-05-05 21:38 22.85101 46.01049 39866 ft 456 kts 271°
2026-05-05 21:39 22.85591 45.94246 39866 ft 455 kts 270°
2026-05-05 21:39 22.86080 45.87418 39858 ft 453 kts 270°
2026-05-05 21:40 22.86564 45.80606 39853 ft 453 kts 270°
2026-05-05 21:40 22.87045 45.73804 39857 ft 452 kts 270°
2026-05-05 21:41 22.87522 45.67009 39851 ft 452 kts 270°
2026-05-05 21:41 22.87995 45.60219 39848 ft 452 kts 270°
2026-05-05 21:42 22.88466 45.53426 39851 ft 452 kts 270°
2026-05-05 21:42 22.88935 45.46629 39855 ft 452 kts 270°
2026-05-05 21:43 22.89399 45.39841 39857 ft 452 kts 270°
2026-05-05 21:43 22.89862 45.33060 39860 ft 450 kts 270°
2026-05-05 21:44 22.90320 45.26303 39859 ft 448 kts 270°
2026-05-05 21:44 22.90772 45.19565 39860 ft 448 kts 270°
2026-05-05 21:45 22.91222 45.12815 39864 ft 448 kts 270°
2026-05-05 21:45 22.91670 45.06072 39868 ft 448 kts 270°
2026-05-05 21:46 22.92114 44.99327 39874 ft 448 kts 270°
2026-05-05 21:46 22.92552 44.92616 39872 ft 449 kts 270°
2026-05-05 21:47 22.92990 44.85859 39868 ft 449 kts 270°
2026-05-05 21:47 22.93425 44.79098 39877 ft 449 kts 270°
2026-05-05 21:48 22.93859 44.72343 39881 ft 449 kts 270°
2026-05-05 21:48 22.94763 44.65609 39884 ft 456 kts 281°
2026-05-05 21:49 22.96630 44.59019 39887 ft 458 kts 283°
2026-05-05 21:49 22.98664 44.52473 39887 ft 458 kts 284°
2026-05-05 21:50 23.00370 44.47030 39890 ft 458 kts 283°
2026-05-05 21:50 23.02404 44.40478 39887 ft 458 kts 283°
2026-05-05 21:51 23.04420 44.33928 39897 ft 457 kts 283°
2026-05-05 21:51 23.06427 44.27383 39900 ft 457 kts 283°
2026-05-05 21:52 23.09433 44.17564 39898 ft 457 kts 283°
2026-05-05 21:53 23.11434 44.11015 39901 ft 457 kts 283°
2026-05-05 21:53 23.13433 44.04462 39896 ft 457 kts 283°
2026-05-05 21:54 23.15427 43.97916 39903 ft 456 kts 283°
2026-05-05 21:54 23.17416 43.91379 39905 ft 455 kts 282°
2026-05-05 21:55 23.19398 43.84848 39909 ft 455 kts 282°
2026-05-05 21:55 23.21377 43.78317 39925 ft 454 kts 282°
2026-05-05 21:56 23.23350 43.71797 39933 ft 454 kts 282°
2026-05-05 21:56 23.25321 43.65272 39939 ft 454 kts 282°
2026-05-05 21:57 23.27286 43.58759 39948 ft 452 kts 282°
2026-05-05 21:57 23.29247 43.52263 39949 ft 452 kts 282°
2026-05-05 21:58 23.31197 43.45771 39963 ft 451 kts 282°
2026-05-05 21:58 23.33128 43.39328 39972 ft 450 kts 282°
2026-05-05 21:59 23.35062 43.32875 39977 ft 448 kts 282°
2026-05-05 21:59 23.36991 43.26429 39984 ft 448 kts 282°
2026-05-05 22:00 23.38914 43.19985 39990 ft 447 kts 282°
2026-05-05 22:00 23.40833 43.13549 39998 ft 447 kts 282°
2026-05-05 22:01 23.42750 43.07114 40003 ft 447 kts 282°
2026-05-05 22:01 23.44653 43.00680 40008 ft 447 kts 282°
2026-05-05 22:02 23.46559 42.94231 40002 ft 448 kts 282°
2026-05-05 22:02 23.48467 42.87770 40000 ft 448 kts 282°
2026-05-05 22:03 23.50373 42.81309 40008 ft 448 kts 282°
2026-05-05 22:03 23.52277 42.74848 40008 ft 448 kts 282°
2026-05-05 22:04 23.54185 42.68381 40009 ft 448 kts 282°
2026-05-05 22:04 23.56085 42.61921 40009 ft 448 kts 282°
2026-05-05 22:05 23.57984 42.55452 40006 ft 448 kts 281°
2026-05-05 22:05 23.59878 42.48989 40004 ft 448 kts 281°
2026-05-05 22:06 23.61772 42.42521 40002 ft 448 kts 281°
2026-05-05 22:06 23.63651 42.36090 40003 ft 447 kts 281°
2026-05-05 22:07 23.65536 42.29632 40012 ft 447 kts 281°
2026-05-05 22:07 23.67416 42.23169 40008 ft 447 kts 281°
2026-05-05 22:08 23.69287 42.16706 40002 ft 446 kts 281°
2026-05-05 22:08 23.71154 42.10246 40004 ft 446 kts 281°
2026-05-05 22:09 23.73017 42.03794 40003 ft 446 kts 281°
2026-05-05 22:09 23.74881 41.97333 40014 ft 446 kts 281°
2026-05-05 22:10 23.76747 41.90886 40004 ft 445 kts 281°
2026-05-05 22:10 23.78607 41.84437 40004 ft 445 kts 281°
2026-05-05 22:11 23.80464 41.77989 40002 ft 445 kts 281°
2026-05-05 22:11 23.82322 41.71544 40003 ft 444 kts 280°
2026-05-05 22:12 23.84167 41.65102 40004 ft 444 kts 280°